KSF3-D (55085 NORAD) Tracking and Keplerian Element Data

This shows tracking and keplerian element data for the satellite.

Feedback or suggestion? Click here.




ElementValue
Catalog55085
NameKSF3-D
Epoch Orbit1876
Epoch Day126.51643471
Epoch Year2023
RAAN186.8778
Inclination97.4805
Eccentricity0.0016754
Argument of Perigee143.5753
Mean Anonmoly323.4526
Mean Motion15.17126399
Decay Rate0.0001124
L11 55085U 23001CE 23126.51643471 .00011240 00000+0 56774-3 0 9993
L22 55085 97.4805 186.8778 0016754 143.5753 323.4526 15.17126399 18765



Live tracking and technical data element details for KSF3-D (NORAD 55085). KSF3-D can be tracked NOW for your location showing map with azimuth and elevation plus other details from your city location.







IsCatalogInMostPopularTable: catalog: 55085, numindb: -1

Insert: records affected: 1


GetName: 55085 KSF3-D

Hit Count: inserted at: Mon, 05 Jun 2023 20:55:53 GMT